| time (UTC) | temp F | wind direction | speed knots | gust knots | rain 1hr in | rain 24hr in | rain mn in | humidity % | barometer mb |
| 20260509150628 | 59 | 213 | 8.7 | 11.3 | 0.00 | 0.00 | 0.00 | 68 | 1007.4 |
| 20260509150119 | 58 | 167 | 10.4 | 11.3 | 0.00 | 0.00 | 0.00 | 70 | 1007.4 |
| 20260509145359 | 58 | 144 | 3.5 | 10.4 | 0.00 | 0.00 | 0.00 | 69 | 1007.5 |
| 20260509144859 | 58 | 165 | 6.1 | 10.4 | 0.00 | 0.00 | 0.00 | 70 | 1007.8 |
| 20260509144358 | 58 | 194 | 6.1 | 9.6 | 0.00 | 0.00 | 0.00 | 71 | 1007.7 |
| 20260509144338 | 58 | 204 | 1.7 | 9.6 | 0.00 | 0.00 | 0.00 | 72 | 1007.6 |
| 20260509143358 | 57 | 177 | 7.8 | 9.6 | 0.00 | 0.00 | 0.00 | 73 | 1007.7 |
| 20260509142858 | 57 | 260 | 4.3 | 9.6 | 0.00 | 0.00 | 0.00 | 72 | 1007.8 |
| 20260509142358 | 57 | 176 | 6.1 | 9.6 | 0.00 | 0.00 | 0.00 | 72 | 1007.9 |
| 20260509141858 | 57 | 181 | 8.7 | 9.6 | 0.00 | 0.00 | 0.00 | 74 | 1007.8 |
| 20260509141613 | 57 | 166 | 5.2 | 10.4 | 0.00 | 0.00 | 0.00 | 74 | 1007.9 |
| 20260509140857 | 56 | 175 | 7.0 | 10.4 | 0.00 | 0.00 | 0.00 | 74 | 1007.9 |
| 20260509140357 | 57 | 195 | 5.2 | 10.4 | 0.00 | 0.00 | 0.00 | 75 | 1007.9 |
| 20260509135857 | 56 | 170 | 6.1 | 10.4 | 0.00 | 0.00 | 0.00 | 76 | 1007.9 |
| 20260509135356 | 56 | 180 | 3.5 | 11.3 | 0.00 | 0.00 | 0.00 | 77 | 1007.8 |
| 20260509134856 | 56 | 163 | 6.1 | 11.3 | 0.00 | 0.00 | 0.00 | 77 | 1007.8 |
| 20260509134356 | 56 | 162 | 7.0 | 11.3 | 0.00 | 0.00 | 0.00 | 76 | 1007.9 |
| 20260509134120 | 55 | 166 | 6.1 | 8.7 | 0.00 | 0.00 | 0.00 | 78 | 1008.0 |
| 20260509133356 | 55 | 174 | 3.5 | 8.7 | 0.00 | 0.00 | 0.00 | 78 | 1007.9 |
| 20260509132855 | 55 | 183 | 3.5 | 12.2 | 0.00 | 0.00 | 0.00 | 78 | 1008.0 |
| 20260509132355 | 55 | 197 | 8.7 | 12.2 | 0.00 | 0.00 | 0.00 | 78 | 1008.0 |
| 20260509131856 | 55 | 208 | 4.3 | 7.8 | 0.00 | 0.00 | 0.00 | 79 | 1008.3 |
| 20260509131354 | 54 | 197 | 1.7 | 7.8 | 0.00 | 0.00 | 0.00 | 80 | 1008.4 |
| 20260509131117 | 53 | 190 | 3.5 | 7.8 | 0.00 | 0.00 | 0.00 | 80 | 1008.4 |
| 20260509130354 | 53 | 197 | 3.5 | 4.3 | 0.00 | 0.00 | 0.00 | 80 | 1008.5 |
| 20260509125854 | 52 | 141 | 2.6 | 5.2 | 0.00 | 0.00 | 0.00 | 80 | 1008.4 |
| 20260509125354 | 52 | 163 | 2.6 | 5.2 | 0.00 | 0.00 | 0.00 | 80 | 1008.6 |
| 20260509124853 | 52 | 180 | 1.7 | 0.0 | 0.00 | 0.00 | 0.00 | 81 | 1008.9 |
| 20260509123353 | 51 | 180 | 0.9 | 5.2 | 0.00 | 0.00 | 0.00 | 82 | 1008.6 |
| 20260509122853 | 51 | 199 | 1.7 | 3.5 | 0.00 | 0.01 | 0.00 | 82 | 1008.7 |
| 20260509122353 | 50 | 84 | 1.7 | 2.6 | 0.00 | 0.01 | 0.00 | 82 | 1008.5 |
| 20260509121852 | 50 | 164 | 2.6 | 2.6 | 0.00 | 0.02 | 0.00 | 81 | 1008.9 |
| 20260509121352 | 50 | 124 | 0.0 | 1.7 | 0.00 | 0.02 | 0.00 | 82 | 1008.9 |
| 20260509121115 | 49 | 151 | 1.7 | 1.7 | 0.00 | 0.03 | 0.00 | 82 | 1008.7 |
| 20260509120352 | 49 | 113 | 0.0 | 2.6 | 0.00 | 0.04 | 0.00 | 83 | 1008.7 |
| 20260509120122 | 48 | 141 | 1.7 | 2.6 | 0.00 | 0.05 | 0.00 | 84 | 1009.0 |
| 20260509115352 | 48 | 154 | 2.6 | 2.6 | 0.00 | 0.06 | 0.00 | 85 | 1008.9 |
| 20260509114852 | 47 | 161 | 1.7 | 2.6 | 0.00 | 0.06 | 0.00 | 85 | 1008.7 |
| 20260509114351 | 47 | 151 | 0.9 | 2.6 | 0.00 | 0.06 | 0.00 | 86 | 1008.6 |
| 20260509113851 | 46 | 133 | 1.7 | 2.6 | 0.00 | 0.07 | 0.00 | 86 | 1008.7 |
| 20260509113614 | 46 | 322 | 0.0 | 0.9 | 0.00 | 0.07 | 0.00 | 86 | 1008.9 |
| 20260509112850 | 45 | 37 | 0.0 | 1.7 | 0.00 | 0.07 | 0.00 | 86 | 1008.9 |
| 20260509112351 | 45 | 4 | 0.0 | 1.7 | 0.00 | 0.07 | 0.00 | 88 | 1009.0 |
| 20260509111850 | 44 | 4 | 0.9 | 1.7 | 0.00 | 0.07 | 0.00 | 89 | 1008.7 |
| 20260509111350 | 44 | 359 | 0.9 | 0.9 | 0.00 | 0.07 | 0.00 | 89 | 1009.0 |
| 20260509110850 | 44 | 235 | 0.0 | 1.7 | 0.00 | 0.07 | 0.00 | 88 | 1008.6 |
| 20260509110350 | 44 | 224 | 0.0 | 2.6 | 0.00 | 0.07 | 0.00 | 88 | 1008.7 |
| 20260509105850 | 44 | 205 | 0.0 | 3.5 | 0.00 | 0.07 | 0.00 | 88 | 1008.6 |
| 20260509105349 | 43 | 180 | 1.7 | 3.5 | 0.00 | 0.07 | 0.00 | 89 | 1008.5 |
| 20260509105158 | 43 | 181 | 2.6 | 2.6 | 0.00 | 0.07 | 0.00 | 89 | 1008.6 |
| 20260509105049 | 43 | 194 | 1.7 | 2.6 | 0.00 | 0.07 | 0.00 | 88 | 1008.7 |
| 20260509103849 | 43 | 191 | 1.7 | 1.7 | 0.00 | 0.08 | 0.00 | 88 | 1008.6 |
| 20260509103608 | 43 | 187 | 1.7 | 1.7 | 0.00 | 0.08 | 0.00 | 88 | 1008.7 |
| 20260509102848 | 42 | 194 | 1.7 | 0.0 | 0.00 | 0.08 | 0.00 | 87 | 1008.5 |
| 20260509101859 | 42 | 195 | 1.7 | 2.6 | 0.00 | 0.08 | 0.00 | 86 | 1008.5 |
| 20260509100917 | 42 | 188 | 0.9 | 2.6 | 0.00 | 0.08 | 0.00 | 85 | 1008.6 |
| 20260509100417 | 42 | 180 | 0.0 | 2.6 | 0.00 | 0.08 | 0.00 | 85 | 1008.5 |
| 20260509095918 | 42 | 195 | 1.7 | 3.5 | 0.00 | 0.08 | 0.00 | 85 | 1008.6 |
| 20260509095416 | 43 | 192 | 1.7 | 3.5 | 0.00 | 0.08 | 0.00 | 83 | 1008.7 |
| 20260509094916 | 43 | 192 | 1.7 | 3.5 | 0.00 | 0.08 | 0.00 | 83 | 1008.6 |
| 20260509094855 | 43 | 195 | 0.9 | 2.6 | 0.00 | 0.08 | 0.00 | 83 | 1008.6 |
| 20260509093916 | 43 | 183 | 1.7 | 2.6 | 0.00 | 0.08 | 0.00 | 83 | 1008.6 |
| 20260509093641 | 43 | 180 | 0.0 | 2.6 | 0.00 | 0.08 | 0.00 | 84 | 1008.5 |
| 20260509092916 | 43 | 202 | 0.0 | 2.6 | 0.00 | 0.08 | 0.00 | 83 | 1008.6 |
| 20260509092416 | 43 | 211 | 1.7 | 1.7 | 0.00 | 0.08 | 0.00 | 82 | 1008.5 |
| 20260509092142 | 43 | 193 | 1.7 | 2.6 | 0.00 | 0.08 | 0.00 | 81 | 1008.9 |
| 20260509091415 | 43 | 193 | 1.7 | 2.6 | 0.00 | 0.08 | 0.00 | 80 | 1008.5 |
| 20260509090915 | 43 | 181 | 1.7 | 2.6 | 0.00 | 0.08 | 0.00 | 79 | 1008.5 |
| 20260509090415 | 43 | 186 | 1.7 | 2.6 | 0.00 | 0.08 | 0.00 | 78 | 1008.6 |
| 20260509085914 | 43 | 186 | 1.7 | 2.6 | 0.00 | 0.08 | 0.00 | 76 | 1008.6 |
| 20260509085414 | 43 | 191 | 1.7 | 1.7 | 0.00 | 0.08 | 0.00 | 75 | 1008.7 |
| 20260509084914 | 44 | 187 | 0.0 | 1.7 | 0.00 | 0.08 | 0.00 | 73 | 1008.7 |
| 20260509084414 | 44 | 193 | 0.0 | 2.6 | 0.00 | 0.08 | 0.00 | 71 | 1008.9 |
| 20260509083913 | 44 | 202 | 0.0 | 3.5 | 0.00 | 0.08 | 0.00 | 70 | 1008.7 |
| 20260509083413 | 44 | 171 | 1.7 | 4.3 | 0.00 | 0.08 | 0.00 | 69 | 1009.0 |
| 20260509082913 | 45 | 178 | 2.6 | 5.2 | 0.00 | 0.08 | 0.00 | 67 | 1009.0 |
| 20260509082414 | 45 | 171 | 2.6 | 5.2 | 0.00 | 0.08 | 0.00 | 66 | 1009.0 |
| 20260509081914 | 45 | 182 | 3.5 | 5.2 | 0.00 | 0.08 | 0.00 | 66 | 1009.1 |
| 20260509081413 | 44 | 179 | 2.6 | 4.3 | 0.00 | 0.08 | 0.00 | 67 | 1009.0 |
| 20260509081130 | 44 | 181 | 2.6 | 3.5 | 0.00 | 0.08 | 0.00 | 67 | 1009.1 |
| 20260509080412 | 43 | 160 | 3.5 | 3.5 | 0.00 | 0.08 | 0.00 | 68 | 1009.0 |
| 20260509075913 | 43 | 164 | 1.7 | 2.6 | 0.00 | 0.08 | 0.00 | 70 | 1009.1 |
| 20260509075412 | 42 | 174 | 1.7 | 3.5 | 0.00 | 0.08 | 0.00 | 73 | 1009.4 |
| 20260509074912 | 42 | 190 | 1.7 | 3.5 | 0.00 | 0.08 | 0.00 | 75 | 1009.2 |
| 20260509074411 | 42 | 190 | 0.9 | 3.5 | 0.00 | 0.08 | 0.00 | 74 | 1009.4 |
| 20260509073911 | 43 | 200 | 1.7 | 3.5 | 0.00 | 0.08 | 0.00 | 69 | 1009.4 |
| 20260509073412 | 43 | 173 | 3.5 | 3.5 | 0.00 | 0.08 | 0.00 | 66 | 1009.4 |
| 20260509072911 | 43 | 178 | 2.6 | 3.5 | 0.00 | 0.08 | 0.00 | 66 | 1009.3 |
| 20260509072411 | 42 | 175 | 1.7 | 3.5 | 0.00 | 0.08 | 0.00 | 67 | 1009.3 |
| 20260509071911 | 42 | 167 | 2.6 | 3.5 | 0.00 | 0.08 | 0.00 | 69 | 1009.3 |
| 20260509071411 | 42 | 180 | 1.7 | 3.5 | 0.00 | 0.08 | 0.00 | 69 | 1009.5 |
| 20260509070910 | 41 | 174 | 2.6 | 3.5 | 0.00 | 0.08 | 0.00 | 70 | 1009.6 |
| 20260509070410 | 41 | 176 | 1.7 | 3.5 | 0.00 | 0.08 | 0.00 | 71 | 1009.6 |
| 20260509065910 | 40 | 179 | 1.7 | 2.6 | 0.00 | 0.08 | 0.00 | 72 | 1009.8 |
| 20260509065409 | 40 | 199 | 0.9 | 3.5 | 0.00 | 0.08 | 0.00 | 73 | 1009.8 |
| 20260509064909 | 41 | 174 | 1.7 | 3.5 | 0.00 | 0.08 | 0.00 | 72 | 1009.8 |
| 20260509064409 | 40 | 192 | 1.7 | 1.7 | 0.00 | 0.08 | 0.00 | 75 | 1009.8 |
| 20260509063909 | 40 | 197 | 0.0 | 3.5 | 0.00 | 0.08 | 0.00 | 73 | 1009.9 |
| 20260509063409 | 41 | 273 | 0.0 | 4.3 | 0.00 | 0.08 | 0.00 | 72 | 1009.9 |
| 20260509063350 | 41 | 185 | 2.6 | 4.3 | 0.00 | 0.08 | 0.00 | 70 | 1010.2 |
| 20260509062633 | 41 | 186 | 1.7 | 4.3 | 0.00 | 0.08 | 0.00 | 69 | 1010.1 |
| 20260509061908 | 40 | 193 | 0.9 | 3.5 | 0.00 | 0.08 | 0.00 | 73 | 1010.2 |
| 20260509061408 | 39 | 197 | 1.7 | 1.7 | 0.00 | 0.08 | 0.00 | 78 | 1010.3 |
| 20260509061129 | 39 | 176 | 0.0 | 1.7 | 0.00 | 0.08 | 0.00 | 82 | 1010.5 |
| 20260509060408 | 40 | 239 | 0.9 | 2.6 | 0.00 | 0.08 | 0.00 | 77 | 1010.4 |
| 20260509060126 | 40 | 195 | 0.9 | 3.5 | 0.00 | 0.08 | 0.00 | 74 | 1010.6 |
| 20260509055407 | 40 | 180 | 2.6 | 3.5 | 0.00 | 0.08 | 0.00 | 75 | 1010.6 |
| 20260509054906 | 40 | 195 | 1.7 | 2.6 | 0.00 | 0.08 | 0.00 | 75 | 1010.6 |
| 20260509054407 | 40 | 193 | 1.7 | 3.5 | 0.00 | 0.08 | 0.00 | 74 | 1010.7 |
| 20260509053907 | 40 | 195 | 1.7 | 3.5 | 0.00 | 0.08 | 0.00 | 75 | 1010.8 |
| 20260509053406 | 40 | 189 | 1.7 | 2.6 | 0.00 | 0.08 | 0.00 | 74 | 1010.7 |
| 20260509052906 | 40 | 211 | 1.7 | 2.6 | 0.00 | 0.08 | 0.00 | 76 | 1010.6 |
| 20260509052406 | 40 | 211 | 1.7 | 2.6 | 0.00 | 0.08 | 0.00 | 75 | 1010.8 |
| 20260509051905 | 40 | 196 | 0.0 | 2.6 | 0.00 | 0.08 | 0.00 | 73 | 1010.8 |
| 20260509051405 | 40 | 199 | 0.9 | 2.6 | 0.00 | 0.08 | 0.00 | 75 | 1011.0 |
| 20260509050905 | 40 | 196 | 0.9 | 2.6 | 0.00 | 0.08 | 0.00 | 75 | 1010.9 |
| 20260509050623 | 40 | 185 | 1.7 | 2.6 | 0.00 | 0.08 | 0.00 | 77 | 1011.0 |
| 20260509045905 | 40 | 192 | 1.7 | 2.6 | 0.00 | 0.08 | 0.00 | 80 | 1011.1 |
| 20260509045405 | 40 | 188 | 1.7 | 2.6 | 0.00 | 0.08 | 0.00 | 80 | 1011.2 |
| 20260509045136 | 40 | 184 | 1.7 | 2.6 | 0.00 | 0.08 | 0.00 | 80 | 1011.0 |
| 20260509044404 | 40 | 211 | 1.7 | 2.6 | 0.00 | 0.08 | 0.00 | 81 | 1011.2 |
| 20260509043904 | 40 | 157 | 0.0 | 2.6 | 0.00 | 0.08 | 0.00 | 82 | 1011.1 |
| 20260509043404 | 40 | 202 | 0.9 | 2.6 | 0.00 | 0.08 | 0.00 | 82 | 1011.4 |
| 20260509042903 | 40 | 177 | 1.7 | 2.6 | 0.00 | 0.08 | 0.00 | 82 | 1011.3 |
| 20260509042403 | 40 | 156 | 0.0 | 2.6 | 0.00 | 0.08 | 0.00 | 83 | 1011.2 |
| 20260509041903 | 40 | 232 | 0.0 | 2.6 | 0.00 | 0.08 | 0.00 | 84 | 1011.5 |
| 20260509041402 | 40 | 187 | 0.0 | 1.7 | 0.00 | 0.08 | 0.00 | 83 | 1011.4 |
| 20260509040902 | 40 | 203 | 0.9 | 1.7 | 0.00 | 0.08 | 0.00 | 80 | 1011.5 |
| 20260509040403 | 40 | 203 | 0.9 | 2.6 | 0.00 | 0.08 | 0.00 | 79 | 1011.5 |
| 20260509035902 | 40 | 194 | 0.9 | 2.6 | 0.00 | 0.08 | 0.08 | 77 | 1011.6 |
| 20260509035624 | 40 | 197 | 0.9 | 2.6 | 0.00 | 0.08 | 0.08 | 76 | 1011.6 |
| 20260509034901 | 41 | 183 | 0.0 | 1.7 | 0.00 | 0.08 | 0.08 | 77 | 1011.6 |
| 20260509034846 | 41 | 166 | 0.0 | 1.7 | 0.00 | 0.08 | 0.08 | 76 | 1011.8 |
| 20260509033901 | 41 | 213 | 1.7 | 1.7 | 0.00 | 0.08 | 0.08 | 77 | 1011.7 |
| 20260509033624 | 40 | 169 | 0.9 | 1.7 | 0.00 | 0.08 | 0.08 | 82 | 1011.5 |
| 20260509032901 | 40 | 244 | 0.9 | 1.7 | 0.00 | 0.08 | 0.08 | 82 | 1011.6 |
| 20260509032617 | 40 | 156 | 1.7 | 1.7 | 0.00 | 0.08 | 0.08 | 82 | 1011.7 |
| 20260509031901 | 40 | 187 | 0.0 | 1.7 | 0.00 | 0.08 | 0.08 | 81 | 1011.7 |
| 20260509031401 | 41 | 186 | 0.9 | 1.7 | 0.00 | 0.08 | 0.08 | 79 | 1011.6 |
| 20260509030900 | 41 | 183 | 1.7 | 1.7 | 0.00 | 0.08 | 0.08 | 78 | 1011.6 |
| 20260509030400 | 42 | 180 | 0.0 | 0.9 | 0.00 | 0.08 | 0.08 | 76 | 1011.6 |
| 20260509025900 | 42 | 130 | 0.0 | 1.7 | 0.00 | 0.08 | 0.08 | 76 | 1011.8 |
| 20260509025400 | 42 | 180 | 0.0 | 1.7 | 0.00 | 0.08 | 0.08 | 74 | 1011.7 |
| 20260509024859 | 42 | 148 | 0.0 | 1.7 | 0.00 | 0.09 | 0.08 | 73 | 1011.5 |
| 20260509024618 | 42 | 192 | 0.9 | 1.7 | 0.00 | 0.10 | 0.08 | 72 | 1011.8 |
| 20260509023859 | 43 | 214 | 0.0 | 1.7 | 0.00 | 0.11 | 0.08 | 70 | 1011.6 |
| 20260509023359 | 43 | 184 | 0.9 | 1.7 | 0.00 | 0.11 | 0.08 | 70 | 1011.6 |
| 20260509022858 | 43 | 213 | 1.7 | 1.7 | 0.00 | 0.11 | 0.08 | 71 | 1011.9 |
| 20260509022358 | 43 | 193 | 1.7 | 1.7 | 0.00 | 0.11 | 0.08 | 70 | 1011.5 |
| 20260509022106 | 44 | 185 | 0.9 | 1.7 | 0.00 | 0.11 | 0.08 | 68 | 1011.6 |
| 20260509021951 | 43 | 203 | 0.9 | 1.7 | 0.00 | 0.11 | 0.08 | 69 | 1011.5 |
| 20260509020857 | 44 | 197 | 0.9 | 1.7 | 0.00 | 0.11 | 0.08 | 66 | 1011.7 |
| 20260509020358 | 44 | 191 | 0.9 | 1.7 | 0.00 | 0.11 | 0.08 | 63 | 1011.5 |
| 20260509015857 | 44 | 202 | 0.0 | 0.9 | 0.00 | 0.11 | 0.08 | 61 | 1011.7 |
| 20260509015357 | 45 | 186 | 0.0 | 0.9 | 0.00 | 0.11 | 0.08 | 62 | 1011.6 |
| 20260509014857 | 45 | 179 | 0.0 | 1.7 | 0.00 | 0.11 | 0.08 | 63 | 1011.4 |
| 20260509014356 | 45 | 181 | 0.0 | 1.7 | 0.00 | 0.11 | 0.08 | 65 | 1011.6 |
| 20260509013857 | 46 | 165 | 0.9 | 1.7 | 0.00 | 0.11 | 0.08 | 65 | 1011.5 |
| 20260509013357 | 46 | 169 | 0.0 | 1.7 | 0.00 | 0.11 | 0.08 | 65 | 1011.7 |
| 20260509012856 | 46 | 135 | 0.0 | 1.7 | 0.00 | 0.11 | 0.08 | 66 | 1011.5 |
| 20260509012356 | 46 | 160 | 0.0 | 1.7 | 0.00 | 0.11 | 0.08 | 64 | 1011.6 |
| 20260509011855 | 47 | 166 | 1.7 | 1.7 | 0.00 | 0.11 | 0.08 | 63 | 1011.6 |
| 20260509011355 | 47 | 169 | 0.9 | 0.9 | 0.00 | 0.11 | 0.08 | 51 | 1011.4 |
| 20260509010855 | 48 | 322 | 0.0 | 0.0 | 0.00 | 0.11 | 0.08 | 46 | 1011.6 |
| 20260509010355 | 49 | 322 | 0.0 | 0.9 | 0.00 | 0.11 | 0.08 | 45 | 1011.5 |
| 20260509005855 | 49 | 6 | 0.0 | 0.9 | 0.00 | 0.11 | 0.08 | 47 | 1011.3 |
| 20260509005354 | 49 | 309 | 0.0 | 0.0 | 0.00 | 0.11 | 0.08 | 44 | 1011.4 |
| 20260509004854 | 49 | 209 | 0.0 | 0.0 | 0.00 | 0.11 | 0.08 | 44 | 1011.4 |
| 20260509004354 | 50 | 209 | 0.0 | 0.0 | 0.00 | 0.11 | 0.08 | 44 | 1011.3 |
| 20260509004123 | 50 | 209 | 0.0 | 0.9 | 0.00 | 0.11 | 0.08 | 42 | 1011.2 |
| 20260509003353 | 50 | 287 | 0.0 | 1.7 | 0.00 | 0.11 | 0.08 | 41 | 1011.1 |
| 20260509002854 | 51 | 37 | 0.0 | 1.7 | 0.00 | 0.11 | 0.08 | 43 | 1010.8 |
| 20260509002354 | 51 | 8 | 1.7 | 1.7 | 0.00 | 0.11 | 0.08 | 42 | 1011.1 |
| 20260509002119 | 51 | 347 | 0.0 | 1.7 | 0.00 | 0.11 | 0.08 | 42 | 1010.7 |
| 20260509001352 | 52 | 37 | 0.0 | 3.5 | 0.00 | 0.11 | 0.08 | 43 | 1010.8 |
| 20260509000853 | 52 | 200 | 0.0 | 3.5 | 0.00 | 0.11 | 0.08 | 42 | 1010.9 |
| 20260509000355 | 53 | 180 | 1.7 | 3.5 | 0.00 | 0.11 | 0.08 | 40 | 1010.9 |
| 20260509000118 | 53 | 269 | 0.0 | 3.5 | 0.00 | 0.11 | 0.08 | 42 | 1011.0 |
| 20260508235614 | 53 | 130 | 0.0 | 3.5 | 0.00 | 0.11 | 0.08 | 39 | 1010.9 |
| 20260508235116 | 54 | 168 | 1.7 | 5.2 | 0.00 | 0.11 | 0.08 | 37 | 1010.7 |
| 20260508234351 | 54 | 232 | 1.7 | 6.1 | 0.00 | 0.11 | 0.08 | 38 | 1010.7 |
| 20260508233851 | 54 | 229 | 1.7 | 6.1 | 0.00 | 0.11 | 0.08 | 37 | 1010.9 |
| 20260508233610 | 55 | 195 | 2.6 | 6.1 | 0.00 | 0.11 | 0.08 | 36 | 1010.9 |
| 20260508232852 | 55 | 193 | 1.7 | 6.1 | 0.00 | 0.11 | 0.08 | 36 | 1010.8 |
| 20260508232350 | 55 | 202 | 1.7 | 6.1 | 0.00 | 0.11 | 0.08 | 34 | 1010.8 |
| 20260508231850 | 55 | 180 | 1.7 | 3.5 | 0.00 | 0.11 | 0.08 | 38 | 1010.6 |
| 20260508231351 | 55 | 283 | 0.9 | 7.0 | 0.00 | 0.11 | 0.08 | 36 | 1010.8 |
| 20260508230850 | 54 | 208 | 2.6 | 7.0 | 0.00 | 0.11 | 0.08 | 37 | 1010.7 |
| 20260508230350 | 55 | 88 | 2.6 | 5.2 | 0.00 | 0.11 | 0.08 | 38 | 1010.8 |
| 20260508225850 | 55 | 234 | 1.7 | 5.2 | 0.00 | 0.11 | 0.08 | 36 | 1010.7 |
| 20260508225349 | 55 | 170 | 0.9 | 6.1 | 0.00 | 0.11 | 0.08 | 35 | 1010.7 |
| 20260508224849 | 56 | 245 | 1.7 | 6.1 | 0.00 | 0.11 | 0.08 | 33 | 1010.7 |
| 20260508224349 | 56 | 286 | 2.6 | 7.8 | 0.00 | 0.11 | 0.08 | 35 | 1010.8 |
| 20260508223848 | 56 | 337 | 3.5 | 7.8 | 0.00 | 0.11 | 0.08 | 36 | 1010.5 |
| 20260508223349 | 56 | 306 | 0.0 | 7.8 | 0.00 | 0.11 | 0.08 | 35 | 1010.9 |
| 20260508222849 | 56 | 247 | 2.6 | 7.8 | 0.00 | 0.11 | 0.08 | 33 | 1010.8 |
| 20260508222834 | 56 | 188 | 3.5 | 7.8 | 0.00 | 0.11 | 0.08 | 34 | 1010.8 |
| 20260508221848 | 56 | 222 | 1.7 | 5.2 | 0.00 | 0.11 | 0.08 | 35 | 1010.7 |
| 20260508221348 | 56 | 308 | 3.5 | 6.1 | 0.00 | 0.11 | 0.08 | 35 | 1010.7 |
| 20260508220847 | 56 | 132 | 1.7 | 7.8 | 0.00 | 0.11 | 0.08 | 32 | 1010.6 |
| 20260508220347 | 57 | 229 | 3.5 | 9.6 | 0.00 | 0.11 | 0.08 | 33 | 1010.7 |
| 20260508215847 | 56 | 231 | 2.6 | 9.6 | 0.00 | 0.11 | 0.08 | 33 | 1010.7 |
| 20260508215347 | 57 | 248 | 3.5 | 11.3 | 0.00 | 0.11 | 0.08 | 31 | 1010.8 |
| 20260508214847 | 57 | 200 | 5.2 | 11.3 | 0.00 | 0.11 | 0.08 | 32 | 1010.8 |
| 20260508214347 | 57 | 312 | 4.3 | 11.3 | 0.00 | 0.11 | 0.08 | 32 | 1010.8 |
| 20260508213846 | 56 | 210 | 2.6 | 0.0 | 0.00 | 0.11 | 0.08 | 30 | 1010.6 |
| 20260508212146 | 57 | 246 | 5.2 | 10.4 | 0.00 | 0.11 | 0.08 | 32 | 1010.6 |
| 20260508211646 | 57 | 279 | 4.3 | 8.7 | 0.00 | 0.11 | 0.08 | 34 | 1010.7 |
| 20260508211145 | 57 | 233 | 4.3 | 8.7 | 0.00 | 0.11 | 0.08 | 35 | 1010.9 |
| 20260508210645 | 57 | 223 | 3.5 | 7.0 | 0.00 | 0.11 | 0.08 | 33 | 1010.7 |
| 20260508210145 | 57 | 285 | 5.2 | 7.0 | 0.00 | 0.11 | 0.08 | 33 | 1010.7 |
| 20260508205645 | 57 | 284 | 0.9 | 8.7 | 0.00 | 0.11 | 0.08 | 36 | 1010.8 |
| 20260508205144 | 56 | 64 | 1.7 | 10.4 | 0.00 | 0.11 | 0.08 | 38 | 1010.8 |
| 20260508204645 | 56 | 189 | 4.3 | 10.4 | 0.00 | 0.11 | 0.08 | 38 | 1010.9 |
| 20260508204621 | 56 | 176 | 1.7 | 6.1 | 0.00 | 0.11 | 0.08 | 41 | 1011.0 |
| 20260508203644 | 56 | 211 | 3.5 | 11.3 | 0.00 | 0.11 | 0.08 | 36 | 1010.9 |
| 20260508203144 | 56 | 208 | 4.3 | 11.3 | 0.00 | 0.11 | 0.08 | 37 | 1011.0 |
| 20260508203121 | 56 | 230 | 2.6 | 13.9 | 0.00 | 0.11 | 0.08 | 37 | 1011.1 |
| 20260508202143 | 56 | 201 | 4.3 | 13.9 | 0.00 | 0.11 | 0.08 | 38 | 1011.2 |
| 20260508201908 | 56 | 259 | 2.6 | 13.9 | 0.00 | 0.11 | 0.08 | 39 | 1011.3 |
| 20260508201143 | 56 | 215 | 0.9 | 7.0 | 0.00 | 0.11 | 0.08 | 39 | 1011.2 |
| 20260508200642 | 56 | 291 | 3.5 | 8.7 | 0.00 | 0.11 | 0.08 | 41 | 1011.0 |
| 20260508200142 | 55 | 357 | 2.6 | 8.7 | 0.00 | 0.11 | 0.08 | 41 | 1011.0 |
| 20260508195642 | 55 | 272 | 3.5 | 5.2 | 0.00 | 0.11 | 0.08 | 42 | 1011.2 |
| 20260508195142 | 55 | 68 | 3.5 | 5.2 | 0.00 | 0.11 | 0.08 | 42 | 1011.5 |
| 20260508194642 | 53 | 150 | 1.7 | 6.1 | 0.00 | 0.11 | 0.08 | 41 | 1011.5 |
| 20260508194142 | 54 | 301 | 2.6 | 7.0 | 0.00 | 0.11 | 0.08 | 42 | 1011.7 |
| 20260508193847 | 54 | 206 | 3.5 | 7.8 | 0.00 | 0.11 | 0.08 | 44 | 1011.5 |
| 20260508193734 | 54 | 225 | 3.5 | 7.0 | 0.00 | 0.11 | 0.08 | 43 | 1011.6 |
| 20260508192641 | 54 | 218 | 3.5 | 8.7 | 0.00 | 0.11 | 0.08 | 40 | 1011.9 |
| 20260508192403 | 54 | 308 | 4.3 | 8.7 | 0.00 | 0.11 | 0.08 | 40 | 1011.9 |
| 20260508191641 | 54 | 308 | 6.1 | 12.2 | 0.00 | 0.11 | 0.08 | 43 | 1011.9 |
| 20260508191141 | 54 | 221 | 4.3 | 12.2 | 0.00 | 0.11 | 0.08 | 41 | 1011.8 |
| 20260508190640 | 55 | 191 | 7.8 | 10.4 | 0.00 | 0.11 | 0.08 | 41 | 1012.0 |
| 20260508190401 | 54 | 203 | 5.2 | 8.7 | 0.00 | 0.11 | 0.08 | 40 | 1012.0 |
| 20260508185640 | 53 | 297 | 7.8 | 8.7 | 0.00 | 0.11 | 0.08 | 42 | 1012.0 |
| 20260508185140 | 54 | 303 | 2.6 | 8.7 | 0.00 | 0.11 | 0.08 | 43 | 1012.1 |
| 20260508184640 | 54 | 262 | 0.9 | 9.6 | 0.00 | 0.11 | 0.08 | 42 | 1012.0 |
| 20260508184139 | 53 | 32 | 0.9 | 9.6 | 0.00 | 0.11 | 0.08 | 44 | 1011.9 |
| 20260508183639 | 54 | 259 | 7.8 | 9.6 | 0.00 | 0.11 | 0.08 | 44 | 1012.0 |
| 20260508183139 | 53 | 265 | 2.6 | 8.7 | 0.00 | 0.11 | 0.08 | 43 | 1012.0 |
| 20260508182639 | 53 | 305 | 7.0 | 9.6 | 0.00 | 0.11 | 0.08 | 43 | 1011.9 |
| 20260508182139 | 53 | 355 | 4.3 | 9.6 | 0.00 | 0.11 | 0.08 | 44 | 1012.2 |
| 20260508181638 | 54 | 323 | 7.0 | 9.6 | 0.00 | 0.11 | 0.08 | 43 | 1012.1 |
| 20260508181138 | 53 | 331 | 3.5 | 10.4 | 0.00 | 0.11 | 0.08 | 40 | 1012.2 |
| 20260508180638 | 54 | 287 | 5.2 | 10.4 | 0.00 | 0.11 | 0.08 | 42 | 1012.3 |
| 20260508180138 | 53 | 251 | 2.6 | 9.6 | 0.00 | 0.11 | 0.08 | 46 | 1012.3 |
| 20260508175638 | 53 | 213 | 5.2 | 10.4 | 0.00 | 0.11 | 0.08 | 46 | 1012.6 |
| 20260508175137 | 53 | 223 | 4.3 | 10.4 | 0.00 | 0.11 | 0.08 | 45 | 1012.3 |
| 20260508174859 | 52 | 337 | 4.3 | 10.4 | 0.00 | 0.11 | 0.08 | 43 | 1012.4 |
| 20260508174136 | 52 | 207 | 7.8 | 10.4 | 0.00 | 0.11 | 0.08 | 46 | 1012.4 |
| 20260508173636 | 52 | 282 | 5.2 | 14.8 | 0.00 | 0.11 | 0.08 | 45 | 1012.6 |
| 20260508173405 | 53 | 184 | 2.6 | 14.8 | 0.00 | 0.11 | 0.08 | 45 | 1012.5 |
| 20260508172636 | 52 | 221 | 5.2 | 9.6 | 0.00 | 0.11 | 0.08 | 50 | 1012.6 |
| 20260508172136 | 51 | 264 | 1.7 | 9.6 | 0.00 | 0.11 | 0.08 | 46 | 1012.6 |
| 20260508171635 | 51 | 299 | 5.2 | 8.7 | 0.00 | 0.11 | 0.08 | 53 | 1012.8 |
| 20260508171136 | 51 | 349 | 5.2 | 9.6 | 0.00 | 0.11 | 0.08 | 50 | 1012.8 |
| 20260508170636 | 50 | 269 | 1.7 | 12.2 | 0.00 | 0.11 | 0.08 | 49 | 1013.0 |
| 20260508170136 | 51 | 184 | 1.7 | 12.2 | 0.00 | 0.11 | 0.08 | 49 | 1012.8 |
| 20260508165635 | 50 | 321 | 2.6 | 7.8 | 0.00 | 0.11 | 0.08 | 54 | 1012.9 |
| 20260508165135 | 51 | 336 | 6.1 | 10.4 | 0.00 | 0.11 | 0.08 | 57 | 1013.0 |
| 20260508164859 | 50 | 55 | 2.6 | 10.4 | 0.00 | 0.11 | 0.08 | 59 | 1013.1 |
| 20260508164134 | 49 | 161 | 1.7 | 10.4 | 0.00 | 0.11 | 0.08 | 58 | 1013.0 |
| 20260508163634 | 49 | 7 | 6.1 | 11.3 | 0.00 | 0.11 | 0.08 | 60 | 1013.3 |
| 20260508163353 | 50 | 222 | 2.6 | 11.3 | 0.00 | 0.11 | 0.08 | 58 | 1013.3 |
| 20260508162852 | 49 | 190 | 6.1 | 7.8 | 0.00 | 0.11 | 0.08 | 63 | 1013.3 |
| 20260508162133 | 50 | 333 | 1.7 | 7.8 | 0.00 | 0.11 | 0.08 | 58 | 1013.1 |
| 20260508161634 | 48 | 236 | 5.2 | 7.8 | 0.00 | 0.11 | 0.08 | 62 | 1013.3 |
| 20260508161402 | 49 | 330 | 3.5 | 9.6 | 0.00 | 0.11 | 0.08 | 67 | 1013.2 |
| 20260508160851 | 48 | 215 | 2.6 | 9.6 | 0.00 | 0.11 | 0.08 | 66 | 1013.1 |
| 20260508160133 | 49 | 196 | 9.6 | 9.6 | 0.00 | 0.11 | 0.08 | 64 | 1013.3 |
| 20260508155632 | 48 | 269 | 1.7 | 9.6 | 0.00 | 0.11 | 0.08 | 66 | 1013.5 |
| 20260508155132 | 48 | 219 | 2.6 | 9.6 | 0.00 | 0.11 | 0.08 | 68 | 1013.7 |
| 20260508154632 | 48 | 300 | 1.7 | 9.6 | 0.00 | 0.11 | 0.08 | 67 | 1013.5 |
| 20260508154132 | 47 | 191 | 1.7 | 10.4 | 0.00 | 0.11 | 0.08 | 68 | 1013.6 |
| 20260508153632 | 47 | 221 | 5.2 | 10.4 | 0.00 | 0.11 | 0.08 | 69 | 1013.6 |
| 20260508153132 | 47 | 203 | 5.2 | 9.6 | 0.00 | 0.11 | 0.08 | 70 | 1013.7 |
| 20260508152632 | 47 | 263 | 3.5 | 9.6 | 0.00 | 0.11 | 0.08 | 73 | 1013.6 |
| 20260508152131 | 47 | 277 | 3.5 | 10.4 | 0.00 | 0.11 | 0.08 | 74 | 1013.6 |
| 20260508151631 | 46 | 200 | 6.1 | 10.4 | 0.00 | 0.11 | 0.08 | 74 | 1013.5 |
| 20260508151131 | 46 | 209 | 6.1 | 10.4 | 0.00 | 0.11 | 0.08 | 77 | 1013.5 |